PEGASUS DEB, 24227

Orbit data source: Space-Track

PEGASUS DEB, 24227 is space debris in LEO originally from a launch on Thu, 19 May 1994 UTC launched from the Air Force Western Test Range (AFWTR). Debris objects in space refer to the collection of defunct objects orbiting the Earth. Examples of debris include non-operational satellites, rocket bodies, and fragments generated from explosions, collisions, or faulty payload assembly.

Loading next visibility...
Identifier
24227, 1994-029LA
Orbit
LEO
Country
Flag of USUS
Related business
Manufacturer
Unknown
Mission
Spacecraft
Bus & Motor
Unknown
Mass
Unknown
Launch date (UTC)
1994-05-19 (32 years ago)
Launch vehicle
Unknown
Launch site
Air Force Western Test Range (AFWTR)
Object type
Payload
Rocket body
Debris
Shape & HBR
Unknown shape, 0.1 m
Radar Cross Section
Small (<0.1 m²)

Expand to show TLE details & history
Last TLE update: 17 hours ago

TLE from 17 hours ago
0 PEGASUS DEB
1 24227U 94029LA  26120.48335921  .00002512  00000-0  30399-3 0  9994
2 24227  82.0361 128.0742 0137886  69.6448  86.0954 14.76648455594711
Epoch: 2026-04-30T11:36Z
TLE epoch observation values (Epoch: 2026-04-30T11:36:02.235Z)
Latitude
22.46789°
Longitude
-87.66319°
Altitude
637.484 km
Speed
7.544 km/s
True Right ascension
20h 19m 06s
True Declination
22° 20' 41"
Sunlit
Object was in daylight at epoch
Visualization orbit readout
Latitude
Unknown
Longitude
Unknown
Altitude
Unknown
Speed
Unknown
Apparent Right ascension
Unknown
Apparent Declination
Unknown
Sunlit
N/A
Visualization observer readout
Local Sidereal Time
12:20:48
Azimuth
Unknown
Elevation
Unknown
Doppler factor
Unknown
Orbital elements
Apogee altitude
733.699 km
Perigee altitude
540.242 km
Semi-major axis
7,015.108 km
Eccentricity
0.01379
Inclination
82.0361°
RAAN
128.0742°
Arg. of periapsis
69.6448°
True anomaly
87.67344°
Mean anomaly
86.0954°
Eccentric anomaly
86.88426°
Mean motion
3.69396 °/min
Orbital period
97.46 mins
BSTAR
0.00030399
Loading maneuver chart data...
Computing Atmospheric mass density...

Documentation

Showing up to 5 results
|